Regional Weather Roundup
Issued by NWS

Home | Current Version | Previous Version | Text Only | Print | Product List | Glossary Off
Versions: 1 2 3 4 5 6 7 8 9 10 11 12 13 14 15 16 17 18 19 20 21 22 23 24 25 26 27 28 29 30 31 32 33 34 35 36 37 38 39 40 41 42 43 44 45 46 47 48 49 50

000
ASUS43 KDMX 300207
RWRIA

WEATHER ROUNDUP FOR IOWA
NATIONAL WEATHER SERVICE DES MOINES IA
900 PM CDT FRI MAY 29 2015

NOTE: "FAIR" INDICATES FEW OR NO CLOUDS BELOW 12,000 FEET WITH NO
SIGNIFICANT WEATHER AND/OR OBSTRUCTIONS TO VISIBILITY.

* - THESE STATIONS ARE NOT NWS STATIONS...THUS NOT UNDER NWS
QUALITY CONTROL.  THEY ALSO DO NOT REPORT WEATHER SUCH
AS PRECIPITATION OR FOG.

IAZ001>003-012>014-020>022-031>034-043>046-300300-
   NORTHWEST IOWA

CITY           SKY/WX    TMP DP  RH WIND       PRES   REMARKS
CARROLL *      LGT RAIN  61  61 100 N18G26    29.96R
CHEROKEE *     CLOUDY    54  52  94 N20G25    30.03R
DENISON *      CLOUDY    59  59 100 N14G23    29.98R
LE MARS *      CLOUDY    54  50  87 N17       30.08R
ORANGE CITY *  CLOUDY    48  46  93 N18G29    30.07R
SHELDON *      CLOUDY    50  48  93 N21G29    30.05R
SIOUX CITY     CLOUDY    55  50  83 N20G25    30.06R
SPENCER        CLOUDY    53  49  86 N24G33    30.02R
STORM LAKE *   CLOUDY    54  52  94 N20G28    30.01R
$$

IAZ055>058-069>071-079>083-090>094-300300-
   SOUTHWEST IOWA

CITY           SKY/WX    TMP DP  RH WIND       PRES   REMARKS
ATLANTIC *     LGT RAIN  66  63  88 N16G24    29.93R
AUDUBON *      HVY RAIN  64  61  88 N13       29.97R
CLARINDA *     PTCLDY    68  64  88 S5        29.95R
COUNCIL BLFS * CLOUDY    63  63 100 NW21G29   29.98R
CRESTON *      CLEAR     66  64  94 S9        29.94R
HARLAN  *      LGT RAIN  64  64 100 N15G24    29.99R
LAMONI         MOCLDY    69  63  81 S8        29.94S
RED OAK *      MOCLDY    70  63  78 CALM      29.93R
SHENANDOAH *   PTCLDY    72  64  78 S5        29.93R
$$

IAZ047>049-059>061-072>074-084-300300-
   CENTRAL IOWA

CITY           SKY/WX    TMP DP  RH WIND       PRES   REMARKS
AMES           PTCLDY    70  63  78 N13       29.91R
ANKENY *       PTCLDY    70  64  83 SW5       29.91R
CHARITON *     CLEAR     68  64  88 S6        29.94R
DES MOINES     MOCLDY    71  63  75 SW6       29.92R
GRINNELL*      CLOUDY    68  63  83 S12       29.93R
KNOXVILLE *    MOCLDY    68  64  88 S8        29.92R
MARSHALLTOWN   MOCLDY    71  64  78 S8        29.90R
PELLA *        CLOUDY    68  66  94 S7        29.94R
PERRY *        CLOUDY    68  63  83 N14       29.93R
$$

IAZ004>006-015-016-023>025-035-036-300300-
   NORTH CENTRAL IOWA

CITY           SKY/WX    TMP DP  RH WIND       PRES   REMARKS
ALGONA *       CLOUDY    57  57 100 N21G33    29.96R
CLARION *      CLOUDY    64  63  94 NW16      29.93R
ESTHERVILLE    CLOUDY    53  52  96 N24       29.99R
FORT DODGE *   CLOUDY    61  55  82 NW10G21   29.96R
MASON CITY     CLOUDY    66  64  93 NW7       29.91R
FOREST CITY *  MOCLDY    63  63 100 NW10      29.91R
IOWA FALLS *   MOCLDY    66  63  88 NW5       29.92S
$$

IAZ007>011-017>019-026>030-037>042-050>054-066-300300-
   NORTHEAST IOWA

CITY           SKY/WX    TMP DP  RH WIND       PRES   REMARKS
CEDAR RAPIDS   LGT RAIN  70  65  84 SW13      29.91R
CHARLES CITY * CLOUDY    66  66 100 N9        29.91R
CLINTON *      CLOUDY    70  64  83 SW7       29.95R
DECORAH *      CLOUDY    66  66 100 CALM      29.89S
DUBUQUE        CLOUDY    70  64  81 SW8       29.91R
MONTICELLO *   CLOUDY    72  66  83 S6        29.91R
OELWEIN *      CLOUDY    70  66  88 SW8       29.90S
WATERLOO       LGT RAIN  69  65  86 SW5       29.88S
$$

IAZ064-065-067-068-078-300300-
   EAST CENTRAL IOWA

CITY           SKY/WX    TMP DP  RH WIND       PRES   REMARKS
DAVENPORT      CLOUDY    73  65  75 W6        29.94R
IOWA CITY      CLOUDY    71  64  78 SW8       29.94R
MT. PLEASANT * CLOUDY    70  64  83 CALM      29.95S
MUSCATINE *    CLOUDY    72  64  78 W7        29.94R
QUAD CITIES    CLOUDY    72  65  78 CALM      29.93R
$$

IAZ062-063-075>077-085>089-095>099-300300-
   SOUTHEAST IOWA

CITY           SKY/WX    TMP DP  RH WIND       PRES   REMARKS
BURLINGTON     CLOUDY    72  66  81 SW6       29.96R
FAIRFIELD *    CLOUDY    70  64  83 SW5       29.96R
FORT MADISON * DRIZZLE   72  66  83 SW6       29.97S
KEOKUK *       MOCLDY    70  66  88 S3        29.96R
OSKALOOSA *    CLOUDY    68  63  83 S8        29.95R
CENTERVILLE *  PTCLDY    66  66 100 S3        29.97S
OTTUMWA        CLOUDY    68  64  87 S8        29.95R
WASHINGTON *   MOCLDY    72  64  78 SW8       29.96S
$$

ABBREVIATIONS USED IN REMARKS
   TC - TEMPERATURES IN CELSIUS
  WCI - WIND CHILL INDEX
   HX - HEAT INDEX
  VSB - VISIBILITY
$$



USA.gov is the U.S. government's official web portal to all federal, state and local government web resources and services.